Time,TemperatureF,DewpointF,PressureIn,WindDirection,WindDirectionDegrees,WindSpeedMPH,WindSpeedGustMPH,Humidity,HourlyPrecipIn,Conditions,Clouds,dailyrainin,SoftwareType,DateUTC
2013-03-12 00:02:00,34.0,25.0,30.03,North,360,0.0,0.0,70,0.01,,,0.27,,2013-03-12 05:02:00,
2013-03-12 00:12:00,34.0,25.0,30.03,North,360,0.0,0.0,70,0.01,,,0.27,,2013-03-12 05:12:00,
2013-03-12 00:22:00,34.0,26.0,30.05,SE,144,0.0,0.0,71,0.01,,,0.27,,2013-03-12 05:22:00,
2013-03-12 00:32:00,34.0,26.0,30.03,North,360,0.0,0.0,71,0.01,,,0.27,,2013-03-12 05:32:00,
2013-03-12 00:42:00,34.0,26.0,30.03,North,360,0.0,0.0,71,0.01,,,0.27,,2013-03-12 05:42:00,
2013-03-12 00:52:00,34.0,26.0,30.03,North,360,0.0,0.0,72,0.00,,,0.27,,2013-03-12 05:52:00,
2013-03-12 01:02:00,33.0,25.0,30.03,North,360,0.0,0.0,72,0.00,,,0.25,,2013-03-12 06:02:00,
2013-03-12 01:12:00,33.0,25.0,30.03,North,360,0.0,0.0,72,0.00,,,0.25,,2013-03-12 06:12:00,
2013-03-12 01:22:00,33.0,25.0,30.02,SE,138,0.0,0.0,73,0.01,,,0.26,,2013-03-12 06:22:00,
2013-03-12 01:32:00,32.0,25.0,30.03,SE,128,0.0,0.0,74,0.01,,,0.26,,2013-03-12 06:32:00,
2013-03-12 01:42:00,32.0,25.0,30.03,SE,128,0.0,0.0,74,0.01,,,0.26,,2013-03-12 06:42:00,
2013-03-12 01:52:00,32.0,25.0,30.03,SE,128,0.0,0.0,75,0.01,,,0.26,,2013-03-12 06:52:00,
2013-03-12 02:02:00,32.0,25.0,30.04,North,360,0.0,0.0,76,0.01,,,0.24,,2013-03-12 07:02:00,
2013-03-12 02:12:00,32.0,25.0,30.04,North,360,0.0,0.0,76,0.01,,,0.24,,2013-03-12 07:12:00,
2013-03-12 02:22:00,32.0,25.0,30.06,North,360,0.0,0.0,76,0.00,,,0.24,,2013-03-12 07:22:00,
2013-03-12 02:32:00,31.0,25.0,30.06,SE,130,0.0,0.0,77,0.01,,,0.25,,2013-03-12 07:32:00,
2013-03-12 02:42:00,31.0,25.0,30.06,SE,130,0.0,0.0,77,0.01,,,0.25,,2013-03-12 07:42:00,
2013-03-12 02:52:00,31.0,25.0,30.05,SE,134,0.0,0.0,77,0.01,,,0.25,,2013-03-12 07:52:00,
2013-03-12 03:02:00,31.0,25.0,30.05,ESE,115,0.0,0.0,77,0.01,,,0.24,,2013-03-12 08:02:00,
2013-03-12 03:12:00,31.0,25.0,30.05,ESE,115,0.0,0.0,77,0.01,,,0.24,,2013-03-12 08:12:00,
2013-03-12 03:22:00,31.0,25.0,30.06,North,360,0.0,0.0,78,0.01,,,0.24,,2013-03-12 08:22:00,
2013-03-12 03:32:00,31.0,25.0,30.05,SE,145,0.0,0.0,78,0.00,,,0.24,,2013-03-12 08:32:00,
2013-03-12 03:42:00,31.0,25.0,30.05,SE,145,0.0,0.0,78,0.00,,,0.24,,2013-03-12 08:42:00,
2013-03-12 03:52:00,31.0,25.0,30.04,SSE,150,0.0,0.0,78,0.00,,,0.24,,2013-03-12 08:52:00,
2013-03-12 04:03:00,31.0,25.0,30.04,North,360,0.0,0.0,79,0.00,,,0.22,,2013-03-12 09:03:00,
2013-03-12 04:12:00,31.0,25.0,30.04,North,360,0.0,0.0,79,0.00,,,0.22,,2013-03-12 09:12:00,
2013-03-12 04:22:00,31.0,25.0,30.05,North,360,0.0,0.0,79,0.00,,,0.22,,2013-03-12 09:22:00,
2013-03-12 04:32:00,30.0,24.0,30.05,North,360,0.0,0.0,79,0.00,,,0.22,,2013-03-12 09:32:00,
2013-03-12 04:42:00,30.0,24.0,30.05,North,360,0.0,0.0,79,0.00,,,0.22,,2013-03-12 09:42:00,
2013-03-12 04:52:00,30.0,24.0,30.04,SSE,148,0.0,0.0,79,0.00,,,0.22,,2013-03-12 09:52:00,
2013-03-12 05:02:00,30.0,24.0,30.05,SSE,159,0.0,0.0,79,0.00,,,0.21,,2013-03-12 10:02:00,
2013-03-12 05:12:00,30.0,24.0,30.05,SSE,159,0.0,0.0,79,0.00,,,0.21,,2013-03-12 10:12:00,
2013-03-12 05:22:00,30.0,24.0,30.06,North,360,0.0,0.0,79,0.00,,,0.21,,2013-03-12 10:22:00,
2013-03-12 05:32:00,30.0,25.0,30.06,North,360,0.0,0.0,80,0.00,,,0.21,,2013-03-12 10:32:00,
2013-03-12 05:42:00,30.0,25.0,30.06,North,360,0.0,0.0,80,0.00,,,0.21,,2013-03-12 10:42:00,
2013-03-12 05:52:00,30.0,25.0,30.08,North,360,0.0,0.0,80,0.00,,,0.21,,2013-03-12 10:52:00,
2013-03-12 06:02:00,30.0,25.0,30.08,North,360,0.0,0.0,80,0.00,,,0.20,,2013-03-12 11:02:00,
2013-03-12 06:12:00,30.0,25.0,30.08,North,360,0.0,0.0,80,0.00,,,0.20,,2013-03-12 11:12:00,
2013-03-12 06:22:00,30.0,25.0,30.09,North,360,0.0,0.0,80,0.00,,,0.20,,2013-03-12 11:22:00,
2013-03-12 06:32:00,30.0,25.0,30.10,SE,145,0.0,0.0,80,0.00,,,0.20,,2013-03-12 11:32:00,
2013-03-12 06:42:00,30.0,25.0,30.10,SE,145,0.0,0.0,80,0.00,,,0.20,,2013-03-12 11:42:00,
2013-03-12 06:52:00,30.0,25.0,30.09,North,360,0.0,0.0,80,0.00,,,0.20,,2013-03-12 11:52:00,
2013-03-12 07:02:00,30.0,25.0,30.09,North,360,0.0,0.0,80,0.00,,,0.19,,2013-03-12 12:02:00,
2013-03-12 07:12:00,30.0,25.0,30.09,North,360,0.0,0.0,80,0.00,,,0.19,,2013-03-12 12:12:00,
2013-03-12 07:22:00,29.0,24.0,30.10,North,360,0.0,0.0,80,0.00,,,0.19,,2013-03-12 12:22:00,
2013-03-12 07:32:00,29.0,24.0,30.11,SE,138,0.0,0.0,80,0.00,,,0.19,,2013-03-12 12:32:00,
2013-03-12 07:42:00,29.0,24.0,30.11,SE,138,0.0,0.0,80,0.00,,,0.19,,2013-03-12 12:42:00,
2013-03-12 07:52:00,29.0,24.0,30.12,North,360,0.0,0.0,81,0.00,,,0.19,,2013-03-12 12:52:00,
2013-03-12 08:02:00,29.0,24.0,30.10,SSE,148,0.0,0.0,81,0.00,,,0.18,,2013-03-12 13:02:00,
2013-03-12 08:12:00,29.0,24.0,30.10,SSE,148,0.0,0.0,81,0.00,,,0.18,,2013-03-12 13:12:00,
2013-03-12 08:22:00,30.0,25.0,30.12,North,360,0.0,0.0,81,0.00,,,0.18,,2013-03-12 13:22:00,
2013-03-12 08:32:00,30.0,25.0,30.14,North,360,0.0,0.0,81,0.00,,,0.18,,2013-03-12 13:32:00,
2013-03-12 08:42:00,30.0,25.0,30.14,North,360,0.0,0.0,81,0.00,,,0.18,,2013-03-12 13:42:00,
2013-03-12 08:52:00,30.0,25.0,30.14,North,360,0.0,0.0,80,0.00,,,0.18,,2013-03-12 13:52:00,
2013-03-12 09:02:00,31.0,26.0,30.14,North,360,0.0,0.0,80,0.00,,,0.17,,2013-03-12 14:02:00,
2013-03-12 09:12:00,31.0,26.0,30.14,North,360,0.0,0.0,80,0.00,,,0.17,,2013-03-12 14:12:00,
2013-03-12 09:22:00,33.0,27.0,30.14,North,360,0.0,0.0,77,0.00,,,0.17,,2013-03-12 14:22:00,
2013-03-12 09:32:00,34.0,26.0,30.13,ESE,115,0.0,0.0,73,0.00,,,0.17,,2013-03-12 14:32:00,
2013-03-12 09:42:00,34.0,26.0,30.13,ESE,115,0.0,0.0,73,0.00,,,0.17,,2013-03-12 14:42:00,
2013-03-12 09:53:00,36.0,27.0,30.14,North,360,0.0,0.0,70,0.00,,,0.17,,2013-03-12 14:53:00,
2013-03-12 10:02:00,36.0,26.0,30.15,North,360,0.0,0.0,68,0.00,,,0.16,,2013-03-12 15:02:00,
2013-03-12 10:12:00,36.0,26.0,30.15,North,360,0.0,0.0,68,0.00,,,0.16,,2013-03-12 15:12:00,
2013-03-12 10:22:00,36.0,26.0,30.16,North,360,0.0,0.0,67,0.00,,,0.16,,2013-03-12 15:22:00,
2013-03-12 10:32:00,37.0,27.0,30.16,North,360,0.0,0.0,68,0.00,,,0.16,,2013-03-12 15:32:00,
2013-03-12 10:42:00,37.0,27.0,30.16,North,360,0.0,0.0,68,0.00,,,0.16,,2013-03-12 15:42:00,
2013-03-12 10:53:00,38.0,28.0,30.16,North,360,0.0,0.0,66,0.01,,,0.17,,2013-03-12 15:53:00,
2013-03-12 11:02:00,39.0,27.0,30.16,SE,133,0.0,0.0,62,0.02,,,0.17,,2013-03-12 16:02:00,
2013-03-12 11:12:00,39.0,27.0,30.16,SE,133,0.0,0.0,62,0.02,,,0.17,,2013-03-12 16:12:00,
2013-03-12 11:22:00,40.0,26.0,30.16,North,360,0.0,0.0,58,0.03,,,0.18,,2013-03-12 16:22:00,
2013-03-12 11:33:00,41.0,27.0,30.15,North,360,0.0,0.0,56,0.04,,,0.19,,2013-03-12 16:33:00,
2013-03-12 11:43:00,41.0,27.0,30.15,North,360,0.0,0.0,56,0.04,,,0.19,,2013-03-12 16:43:00,
2013-03-12 11:53:00,43.0,28.0,30.15,North,360,0.0,0.0,56,0.04,,,0.20,,2013-03-12 16:53:00,
2013-03-12 12:02:00,43.0,27.0,30.15,SE,129,0.0,0.0,53,0.04,,,0.20,,2013-03-12 17:02:00,
2013-03-12 12:12:00,43.0,27.0,30.15,SE,129,0.0,0.0,53,0.04,,,0.20,,2013-03-12 17:12:00,
2013-03-12 12:22:00,44.0,28.0,30.15,North,360,0.0,0.0,53,0.04,,,0.21,,2013-03-12 17:22:00,
2013-03-12 12:33:00,45.0,29.0,30.16,North,360,0.0,0.0,53,0.03,,,0.21,,2013-03-12 17:33:00,
2013-03-12 12:43:00,45.0,29.0,30.16,North,360,0.0,0.0,53,0.03,,,0.21,,2013-03-12 17:43:00,
2013-03-12 12:53:00,45.0,28.0,30.15,SE,136,0.0,0.0,52,0.03,,,0.22,,2013-03-12 17:53:00,
2013-03-12 13:02:00,46.0,30.0,30.15,SE,135,0.0,0.0,53,0.02,,,0.21,,2013-03-12 18:02:00,
2013-03-12 13:13:00,47.0,31.0,30.15,North,360,0.0,0.0,53,0.01,,,0.21,,2013-03-12 18:13:00,
2013-03-12 13:23:00,47.0,31.0,30.15,North,360,0.0,0.0,53,0.01,,,0.21,,2013-03-12 18:23:00,
2013-03-12 13:33:00,49.0,30.0,30.13,North,360,0.0,0.0,47,0.01,,,0.21,,2013-03-12 18:33:00,
2013-03-12 13:42:00,49.0,30.0,30.13,North,360,0.0,0.0,47,0.01,,,0.21,,2013-03-12 18:42:00,
2013-03-12 13:53:00,49.0,29.0,30.13,North,360,0.0,0.0,45,0.00,,,0.21,,2013-03-12 18:53:00,
2013-03-12 14:03:00,50.0,28.0,30.12,North,360,0.0,0.0,42,0.00,,,0.20,,2013-03-12 19:03:00,
2013-03-12 14:13:00,50.0,28.0,30.12,North,360,0.0,0.0,42,0.00,,,0.20,,2013-03-12 19:13:00,
2013-03-12 14:23:00,50.0,27.0,30.12,North,360,0.0,0.0,41,0.00,,,0.20,,2013-03-12 19:23:00,
2013-03-12 14:33:00,50.0,28.0,30.12,North,360,0.0,0.0,42,0.00,,,0.20,,2013-03-12 19:33:00,
2013-03-12 14:43:00,50.0,28.0,30.12,North,360,0.0,0.0,42,0.00,,,0.20,,2013-03-12 19:43:00,
2013-03-12 14:53:00,50.0,28.0,30.11,North,360,0.0,0.0,42,0.00,,,0.20,,2013-03-12 19:53:00,
2013-03-12 15:02:00,50.0,28.0,30.11,North,360,0.0,0.0,43,0.00,,,0.19,,2013-03-12 20:02:00,
2013-03-12 15:12:00,50.0,28.0,30.11,North,360,0.0,0.0,43,0.00,,,0.19,,2013-03-12 20:12:00,
2013-03-12 15:22:00,50.0,29.0,30.11,North,360,0.0,0.0,44,0.00,,,0.19,,2013-03-12 20:22:00,
2013-03-12 15:32:00,49.0,29.0,30.11,North,360,0.0,0.0,45,0.00,,,0.19,,2013-03-12 20:32:00,
2013-03-12 15:42:00,49.0,29.0,30.11,North,360,0.0,0.0,45,0.00,,,0.19,,2013-03-12 20:42:00,
2013-03-12 15:53:00,49.0,29.0,30.11,ESE,116,0.0,0.0,46,0.00,,,0.19,,2013-03-12 20:53:00,
2013-03-12 16:02:00,49.0,29.0,30.11,North,360,0.0,0.0,45,0.00,,,0.18,,2013-03-12 21:02:00,
2013-03-12 16:12:00,49.0,29.0,30.11,North,360,0.0,0.0,45,0.00,,,0.18,,2013-03-12 21:12:00,
2013-03-12 16:22:00,49.0,29.0,30.10,North,360,0.0,0.0,45,0.00,,,0.18,,2013-03-12 21:22:00,
2013-03-12 16:32:00,49.0,27.0,30.11,North,360,0.0,0.0,43,0.00,,,0.18,,2013-03-12 21:32:00,
2013-03-12 16:43:00,49.0,27.0,30.11,North,360,0.0,0.0,43,0.00,,,0.18,,2013-03-12 21:43:00,
2013-03-12 16:52:00,48.0,29.0,30.12,North,360,0.0,0.0,47,0.00,,,0.18,,2013-03-12 21:52:00,
2013-03-12 17:02:00,47.0,28.0,30.13,North,360,0.0,0.0,47,0.00,,,0.16,,2013-03-12 22:02:00,
2013-03-12 17:12:00,47.0,28.0,30.13,North,360,0.0,0.0,47,0.00,,,0.16,,2013-03-12 22:12:00,
2013-03-12 17:22:00,47.0,28.0,30.12,North,360,0.0,0.0,48,0.00,,,0.16,,2013-03-12 22:22:00,
2013-03-12 17:33:00,46.0,27.0,30.13,North,360,0.0,0.0,48,0.00,,,0.16,,2013-03-12 22:33:00,
2013-03-12 17:42:00,46.0,27.0,30.13,North,360,0.0,0.0,48,0.00,,,0.16,,2013-03-12 22:42:00,
2013-03-12 17:53:00,46.0,27.0,30.13,North,360,0.0,0.0,48,0.00,,,0.16,,2013-03-12 22:53:00,
2013-03-12 18:02:00,45.0,28.0,30.14,North,360,0.0,0.0,51,0.00,,,0.15,,2013-03-12 23:02:00,
2013-03-12 18:12:00,45.0,28.0,30.14,North,360,0.0,0.0,51,0.00,,,0.15,,2013-03-12 23:12:00,
2013-03-12 18:22:00,45.0,29.0,30.14,North,360,0.0,0.0,54,0.00,,,0.15,,2013-03-12 23:22:00,
2013-03-12 18:34:00,44.0,28.0,30.15,North,360,0.0,0.0,54,0.00,,,0.15,,2013-03-12 23:34:00,
2013-03-12 18:43:00,44.0,28.0,30.15,North,360,0.0,0.0,54,0.00,,,0.15,,2013-03-12 23:43:00,
2013-03-12 18:52:00,43.0,28.0,30.16,North,360,0.0,0.0,54,0.00,,,0.15,,2013-03-12 23:52:00,
2013-03-12 19:02:00,42.0,27.0,30.16,North,360,0.0,0.0,56,0.00,,,0.14,,2013-03-13 00:02:00,
2013-03-12 19:12:00,42.0,27.0,30.16,North,360,0.0,0.0,56,0.00,,,0.14,,2013-03-13 00:12:00,
2013-03-12 19:23:00,41.0,27.0,30.18,North,360,0.0,0.0,57,0.00,,,0.14,,2013-03-13 00:23:00,
2013-03-12 19:33:00,40.0,26.0,30.18,North,360,0.0,0.0,56,0.00,,,0.14,,2013-03-13 00:33:00,
2013-03-12 19:42:00,40.0,26.0,30.18,North,360,0.0,0.0,56,0.00,,,0.14,,2013-03-13 00:42:00,
2013-03-12 19:53:00,40.0,26.0,30.19,North,360,0.0,0.0,56,0.00,,,0.14,,2013-03-13 00:53:00,
2013-03-12 20:02:00,39.0,25.0,30.19,North,360,0.0,0.0,56,0.00,,,0.13,,2013-03-13 01:02:00,
2013-03-12 20:12:00,39.0,25.0,30.19,North,360,0.0,0.0,56,0.00,,,0.13,,2013-03-13 01:12:00,
2013-03-12 20:22:00,39.0,25.0,30.19,North,360,0.0,0.0,57,0.00,,,0.13,,2013-03-13 01:22:00,
2013-03-12 20:32:00,39.0,25.0,30.19,ESE,122,0.0,0.0,56,0.00,,,0.13,,2013-03-13 01:32:00,
2013-03-12 20:42:00,39.0,25.0,30.19,ESE,122,0.0,0.0,56,0.00,,,0.13,,2013-03-13 01:42:00,
2013-03-12 20:53:00,38.0,24.0,30.20,North,360,0.0,0.0,56,0.00,,,0.13,,2013-03-13 01:53:00,
2013-03-12 21:02:00,38.0,24.0,30.20,SE,126,0.0,0.0,57,0.00,,,0.12,,2013-03-13 02:02:00,
2013-03-12 21:12:00,38.0,24.0,30.20,SE,126,0.0,0.0,57,0.00,,,0.12,,2013-03-13 02:12:00,
2013-03-12 21:22:00,38.0,25.0,30.21,North,360,0.0,0.0,58,0.00,,,0.12,,2013-03-13 02:22:00,
2013-03-12 21:32:00,38.0,25.0,30.21,North,360,0.0,0.0,59,0.00,,,0.12,,2013-03-13 02:32:00,
2013-03-12 21:42:00,38.0,25.0,30.21,North,360,0.0,0.0,59,0.00,,,0.12,,2013-03-13 02:42:00,
2013-03-12 21:52:00,38.0,26.0,30.22,North,360,0.0,0.0,61,0.00,,,0.12,,2013-03-13 02:52:00,
2013-03-12 22:02:00,37.0,26.0,30.22,North,360,0.0,0.0,63,0.00,,,0.12,,2013-03-13 03:02:00,
2013-03-12 22:12:00,37.0,26.0,30.22,North,360,0.0,0.0,63,0.00,,,0.12,,2013-03-13 03:12:00,
2013-03-12 22:22:00,37.0,26.0,30.22,North,360,0.0,0.0,64,0.00,,,0.12,,2013-03-13 03:22:00,
2013-03-12 22:32:00,37.0,26.0,30.23,North,360,0.0,0.0,65,0.00,,,0.12,,2013-03-13 03:32:00,
2013-03-12 22:42:00,37.0,26.0,30.23,North,360,0.0,0.0,65,0.00,,,0.12,,2013-03-13 03:42:00,
2013-03-12 22:53:00,36.0,25.0,30.23,North,360,0.0,0.0,65,0.00,,,0.12,,2013-03-13 03:53:00,
2013-03-12 23:02:00,36.0,24.0,30.24,North,360,0.0,0.0,62,0.00,,,0.11,,2013-03-13 04:02:00,
2013-03-12 23:13:00,36.0,24.0,30.24,North,360,0.0,0.0,62,0.00,,,0.11,,2013-03-13 04:13:00,
2013-03-12 23:22:00,36.0,24.0,30.24,North,360,0.0,0.0,61,0.00,,,0.11,,2013-03-13 04:22:00,
2013-03-12 23:32:00,36.0,24.0,30.25,North,360,0.0,0.0,61,0.00,,,0.11,,2013-03-13 04:32:00,
2013-03-12 23:42:00,36.0,24.0,30.25,North,360,0.0,0.0,61,0.00,,,0.11,,2013-03-13 04:42:00,
2013-03-12 23:53:00,36.0,23.0,30.25,North,360,0.0,0.0,59,0.00,,,0.11,,2013-03-13 04:53:00,